Volver al catálogo

STRIX-3

ActivoCienciaSSO
NORAD 59224·PAYLOAD·🇯🇵 Japan

Lanzado Mar 12, 2024 desde Rocket Lab Launch Complex 1

Loading…

Próximos Pases (próximas 24 horas)

TLE

ActualizadoSource: Space-Track

Época: Sep 14, 2026, 13:49 UTC

1 59224U 24047A   26257.57608409  .00005934  00000-0  27346-3 0  9996
2 59224  97.6719 234.6956 0014597 109.1533 251.1283 15.20579043138321

Sigue STRIX-3 en tiempo real con AllMySat

Download on the App Store